Home   Weather   Adak   Past weeks

Flag for USA Past Weather in Adak, Alaska, USA — Yesterday and Last 2 Weeks

Now
37 °F

Partly cloudy.


Feels Like: 27 °F
Forecast: 37 / 41 °F
Wind: 18 mph from Southwest

Location: Adak

Current Time: Dec 4, 2016 at 4:25:04 am

Latest Report: Dec 4, 2016 at 3:56 am


Visibility: 10 mi

Pressure: 29.84 "Hg

Humidity: 65%

Dew Point: 27 °F

Location of AdakLocation

Past Weather in Adak — Graph

°F

Adak Temperature Yesterday

Maximum temperature yesterday: 43 °F (at 2:16 pm)
Minimum temperature yesterday: 36 °F (at 8:36 pm)
Average temperature yesterday: 39 °F

High & Low Weather Summary for the Past Weeks

 TemperatureHumidityPressure
High46 °F (Nov 21, 9:56 am)81% (Nov 19, 5:16 am)30.43 "Hg (Nov 19, 5:16 am)
Low27 °F (Nov 28, 12:36 am)41% (Dec 1, 3:36 am)28.64 "Hg (Nov 29, 4:56 pm)
Average36 °F67%29.67 "Hg
* Reported Nov 19 3:16 am — Dec 4 3:16 am, Adak, Weather by CustomWeather, © 2016

Note: Actual official high and low records may vary slightly from our data, if they occured in-between our weather recording intervals... More about our weather records

Advertising

Adak Weather History for the Previous 24 Hours

Scroll right to see more
 ConditionsComfort  
Time TempWeatherWind HumidityBarometerVisibility
3:16 am
Sun, Dec 4
36 °FPassing clouds.15 mph70%29.83 "Hg10 mi
2:56 am36 °FPassing clouds.15 mph70%29.83 "Hg10 mi
2:36 am36 °FPassing clouds.13 mph70%29.82 "Hg10 mi
2:16 am34 °FPassing clouds.9 mph75%29.82 "Hg10 mi
1:56 am36 °FPartly cloudy.9 mph70%29.82 "Hg10 mi
1:36 am36 °FPassing clouds.8 mph70%29.82 "Hg10 mi
1:16 am37 °FOvercast.9 mph70%29.81 "Hg10 mi
12:56 am37 °FOvercast.16 mph70%29.80 "Hg10 mi
12:36 am37 °FOvercast.24 mph70%29.79 "Hg8 mi
12:16 am37 °FMostly cloudy.17 mph75%29.79 "Hg5 mi
11:56 pm
Sat, Dec 3
37 °FMostly cloudy.10 mph75%29.79 "Hg10 mi
11:36 pm37 °FOvercast.10 mph75%29.79 "Hg9 mi
11:16 pm37 °FOvercast.10 mph75%29.79 "Hg10 mi
10:56 pm37 °FMostly cloudy.13 mph75%29.79 "Hg9 mi
10:36 pm37 °FMostly cloudy.14 mph75%29.79 "Hg10 mi
10:16 pm37 °FMostly cloudy.13 mph75%29.79 "Hg10 mi
9:56 pm37 °FMostly cloudy.10 mph75%29.79 "Hg9 mi
9:36 pm39 °FPartly cloudy.8 mph70%29.79 "Hg10 mi
9:16 pm37 °FOvercast.6 mph75%29.79 "Hg10 mi
8:56 pm37 °FMostly cloudy.3 mph70%29.79 "Hg10 mi
8:36 pm36 °FOvercast.3 mph75%29.78 "Hg10 mi
8:16 pm37 °FMostly cloudy.No wind70%29.78 "Hg10 mi
7:56 pm37 °FMostly cloudy.3 mph70%29.79 "Hg10 mi
7:36 pm37 °FOvercast.3 mph75%29.80 "Hg10 mi
7:16 pm37 °FMostly cloudy.3 mph75%29.80 "Hg10 mi
6:56 pm39 °FOvercast.6 mph70%29.80 "Hg10 mi
6:36 pm39 °FOvercast.8 mph70%29.80 "Hg10 mi
6:16 pm39 °FMostly cloudy.14 mph70%29.80 "Hg8 mi
5:56 pm39 °FMostly cloudy.18 mph75%29.79 "Hg10 mi
5:36 pm41 °FMostly cloudy.17 mph70%29.78 "Hg10 mi
5:16 pm43 °FOvercast.16 mph76%29.76 "Hg6 mi
4:36 pm43 °FMostly cloudy.26 mph71%29.76 "Hg3 mi
4:16 pm43 °FMore clouds than sun.30 mph76%29.76 "Hg1 mi
3:56 pm43 °FMostly cloudy.30 mph71%29.76 "Hg1 mi
3:36 pm43 °FMostly cloudy.30 mph71%29.77 "Hg1 mi
3:16 pm43 °FMostly cloudy.29 mph71%29.79 "Hg1 mi
2:56 pm43 °FMostly cloudy.38 mph71%29.80 "Hg1 mi
2:36 pm43 °FMostly cloudy.35 mph71%29.81 "Hg1 mi
2:16 pm43 °FMostly cloudy.30 mph71%29.82 "Hg1 mi
1:56 pm41 °FMostly cloudy.32 mph76%29.83 "Hg1 mi
1:36 pm41 °FCloudy.35 mph76%29.84 "Hg1 mi
1:16 pm41 °FMore clouds than sun.37 mph70%29.85 "Hg1 mi
12:56 pm41 °FMostly cloudy.32 mph70%29.86 "Hg1 mi
12:36 pm39 °FOvercast.31 mph75%29.87 "Hg1 mi
12:16 pm39 °FMostly cloudy.31 mph70%29.88 "Hg1 mi
11:56 am39 °FMostly cloudy.30 mph70%29.89 "Hg2 mi
11:36 am39 °FMostly cloudy.26 mph70%29.91 "Hg3 mi
11:16 am39 °FOvercast.32 mph70%29.92 "Hg3 mi
10:56 am39 °FMore clouds than sun.29 mph70%29.92 "Hg3 mi
10:36 am39 °FOvercast.33 mph70%29.92 "Hg2 mi
10:16 am39 °FMostly cloudy.28 mph70%29.93 "Hg2 mi
9:56 am39 °FMostly cloudy.30 mph70%29.94 "Hg4 mi
9:36 am39 °FOvercast.25 mph70%29.94 "Hg4 mi
9:16 am39 °FOvercast.25 mph70%29.95 "Hg4 mi
8:56 am39 °FOvercast.29 mph70%29.95 "Hg4 mi
8:36 am41 °FOvercast.26 mph66%29.96 "Hg3 mi
8:16 am39 °FMostly cloudy.31 mph70%29.97 "Hg4 mi
7:56 am39 °FOvercast.30 mph70%29.98 "Hg4 mi
7:36 am39 °FMostly cloudy.29 mph70%29.99 "Hg4 mi
7:16 am41 °FOvercast.26 mph66%30.00 "Hg5 mi
6:56 am41 °FOvercast.24 mph66%30.02 "Hg4 mi
6:36 am41 °FMostly cloudy.29 mph66%30.03 "Hg5 mi
6:16 am41 °FMostly cloudy.30 mph66%30.03 "Hg6 mi
5:56 am41 °FMostly cloudy.25 mph66%30.05 "Hg5 mi
5:36 am41 °FOvercast.30 mph66%30.06 "Hg10 mi
5:16 am39 °FOvercast.29 mph70%30.07 "Hg9 mi
4:56 am39 °FOvercast.24 mph70%30.09 "Hg10 mi
4:36 am39 °FMostly cloudy.23 mph65%30.11 "Hg7 mi
4:16 am39 °FOvercast.24 mph61%30.13 "Hg10 mi
Weather by CustomWeather, © 2016

See weather overviewHow to use our weather pages